Location: Koslow
(50.3020°N, 18.5663°E)
Time: 03:22:59
(UTC+00:00)

STARLINK-1353 - Pass Details

Date: 07 June 2020
Orbit: 531 x 535 km, 53.0° (Epoch: 04 July)

Event Time Altitude Azimuth Distance (km) Brightness Sun altitude
Rises 00:33:44 0° 285° (WNW) 2,681 7.0 -13.0°
Reaches altitude 10° 00:35:58 10° 288° (WNW) 1,790 6.1 -12.9°
Maximum altitude 00:40:00 65° 10° (N) 593 4.0 -12.6°
Drops below altitude 10° 00:44:02 10° 94° (E) 1,789 6.6 -12.3°
Sets 00:46:17 0° 97° (E) 2,679 7.4 -12.1°
